Year,Month,Day,Hour,Minute,Value (Times are PST for temperature in C)
2018,01,16,12,34,8.90
2018,01,16,12,35,8.90
2018,01,16,12,36,8.90
2018,01,16,12,37,8.90
2018,01,16,12,38,9.00
2018,01,16,12,39,9.00
2018,01,16,12,40,9.00
2018,01,16,12,41,9.10
2018,01,16,12,42,9.10
2018,01,16,12,43,9.10
2018,01,16,12,44,9.20
2018,01,16,12,45,9.20
2018,01,16,12,46,9.20
2018,01,16,12,47,9.30
2018,01,16,12,48,9.30
2018,01,16,12,49,9.30
2018,01,16,12,50,9.30
2018,01,16,12,51,9.30
2018,01,16,12,52,9.40
2018,01,16,12,53,9.40
2018,01,16,12,54,9.40
2018,01,16,12,55,9.50
2018,01,16,12,56,9.50
2018,01,16,12,57,9.50
2018,01,16,12,58,9.50
2018,01,16,12,59,9.50
2018,01,16,13,00,9.60
2018,01,16,13,01,9.60
2018,01,16,13,02,9.60
2018,01,16,13,03,9.60
2018,01,16,13,04,9.70
2018,01,16,13,05,9.70
2018,01,16,13,06,9.70
2018,01,16,13,07,9.60
2018,01,16,13,08,9.60
2018,01,16,13,09,9.60
2018,01,16,13,10,9.50
2018,01,16,13,11,9.50
2018,01,16,13,12,9.40
2018,01,16,13,13,9.40
2018,01,16,13,14,9.40
2018,01,16,13,15,9.30
2018,01,16,13,16,9.30
2018,01,16,13,17,9.30
2018,01,16,13,18,9.30
2018,01,16,13,19,9.30
2018,01,16,13,20,9.30
2018,01,16,13,21,9.30
2018,01,16,13,22,9.30
2018,01,16,13,23,9.30
2018,01,16,13,24,9.20
2018,01,16,13,25,9.20
2018,01,16,13,26,9.20
2018,01,16,13,27,9.20
2018,01,16,13,28,9.30
2018,01,16,13,29,9.30
2018,01,16,13,30,9.30
2018,01,16,13,31,9.30
2018,01,16,13,32,9.30
2018,01,16,13,33,9.40
2018,01,16,13,34,9.40
2018,01,16,13,35,9.40
2018,01,16,13,36,9.40
2018,01,16,13,37,9.40
2018,01,16,13,38,9.40
2018,01,16,13,39,9.40
2018,01,16,13,40,9.50
2018,01,16,13,41,9.50
2018,01,16,13,42,9.50
2018,01,16,13,43,9.50
2018,01,16,13,44,9.50
2018,01,16,13,45,9.50
2018,01,16,13,46,9.50
2018,01,16,13,47,9.50
2018,01,16,13,48,9.50
2018,01,16,13,49,9.40
2018,01,16,13,50,9.40
2018,01,16,13,51,9.40
2018,01,16,13,52,9.40
2018,01,16,13,53,9.40
2018,01,16,13,54,9.40
2018,01,16,13,55,9.40
2018,01,16,13,56,9.40
2018,01,16,13,57,9.40
2018,01,16,13,58,9.40
2018,01,16,13,59,9.40
2018,01,16,14,00,9.40
2018,01,16,14,01,9.40
2018,01,16,14,02,9.40
2018,01,16,14,03,9.40
2018,01,16,14,04,9.40
2018,01,16,14,05,9.50
2018,01,16,14,06,9.50
2018,01,16,14,07,9.50
2018,01,16,14,08,9.50
2018,01,16,14,09,9.50
2018,01,16,14,10,9.50
2018,01,16,14,11,9.50
2018,01,16,14,12,9.50
2018,01,16,14,13,9.50
2018,01,16,14,14,9.50
2018,01,16,14,15,9.50
2018,01,16,14,16,9.50
2018,01,16,14,17,9.50
2018,01,16,14,18,9.50
2018,01,16,14,19,9.50
2018,01,16,14,20,9.60
2018,01,16,14,21,9.60
2018,01,16,14,22,9.60
2018,01,16,14,23,9.60
2018,01,16,14,24,9.60
2018,01,16,14,25,9.60
2018,01,16,14,26,9.60
2018,01,16,14,27,9.50
2018,01,16,14,28,9.50
2018,01,16,14,29,9.50
2018,01,16,14,30,9.50
2018,01,16,14,31,9.50
2018,01,16,14,32,9.50
2018,01,16,14,33,9.50
2018,01,16,14,34,9.50
2018,01,16,14,35,9.50
2018,01,16,14,36,9.60
2018,01,16,14,37,9.60
2018,01,16,14,38,9.60
2018,01,16,14,39,9.60
2018,01,16,14,40,9.60
2018,01,16,14,41,9.60
2018,01,16,14,42,9.60
2018,01,16,14,43,9.60
2018,01,16,14,44,9.60
2018,01,16,14,45,9.60
2018,01,16,14,46,9.60
2018,01,16,14,47,9.60
2018,01,16,14,48,9.70
2018,01,16,14,49,9.70
2018,01,16,14,50,9.70
2018,01,16,14,51,9.70
2018,01,16,14,52,9.70
2018,01,16,14,53,9.70
2018,01,16,14,54,9.70
2018,01,16,14,55,9.70
2018,01,16,14,56,9.70
2018,01,16,14,57,9.70
2018,01,16,14,58,9.70
2018,01,16,14,59,9.70
2018,01,16,15,00,9.80
2018,01,16,15,01,9.80
2018,01,16,15,02,9.80
2018,01,16,15,03,9.80
2018,01,16,15,04,9.80
2018,01,16,15,05,9.80
2018,01,16,15,06,9.70
2018,01,16,15,07,9.70
2018,01,16,15,08,9.60
2018,01,16,15,09,9.60
2018,01,16,15,10,9.60
2018,01,16,15,11,9.50
2018,01,16,15,12,9.50
2018,01,16,15,13,9.50
2018,01,16,15,14,9.40
2018,01,16,15,15,9.40
2018,01,16,15,16,9.40
2018,01,16,15,17,9.30
2018,01,16,15,18,9.30
2018,01,16,15,19,9.30
2018,01,16,15,20,9.30
2018,01,16,15,21,9.30
2018,01,16,15,22,9.30
2018,01,16,15,23,9.30
2018,01,16,15,24,9.20
2018,01,16,15,25,9.20
2018,01,16,15,26,9.20
2018,01,16,15,27,9.20
2018,01,16,15,28,9.20
2018,01,16,15,29,9.10
2018,01,16,15,30,9.10
2018,01,16,15,31,9.10
2018,01,16,15,32,9.10
2018,01,16,15,33,9.10
2018,01,16,15,34,9.10
2018,01,16,15,35,9.10
2018,01,16,15,36,9.10
2018,01,16,15,37,9.10
2018,01,16,15,38,9.10
2018,01,16,15,39,9.00
2018,01,16,15,40,9.00
2018,01,16,15,41,9.00
2018,01,16,15,42,9.00
2018,01,16,15,43,9.00
2018,01,16,15,44,9.00
2018,01,16,15,45,9.00
2018,01,16,15,46,9.00
2018,01,16,15,47,9.00
2018,01,16,15,48,9.10
2018,01,16,15,49,9.10
2018,01,16,15,50,9.10
2018,01,16,15,51,9.10
2018,01,16,15,52,9.10
2018,01,16,15,53,9.20
2018,01,16,15,54,9.20
2018,01,16,15,55,9.20
2018,01,16,15,56,9.20
2018,01,16,15,57,9.20
2018,01,16,15,58,9.20
2018,01,16,15,59,9.20
2018,01,16,16,00,9.10
2018,01,16,16,01,9.10
2018,01,16,16,02,9.10
2018,01,16,16,03,9.10
2018,01,16,16,04,9.10
2018,01,16,16,05,9.10
2018,01,16,16,06,9.10
2018,01,16,16,07,9.10
2018,01,16,16,08,9.00
2018,01,16,16,09,9.00
2018,01,16,16,10,9.00
2018,01,16,16,11,9.00
2018,01,16,16,12,8.90
2018,01,16,16,13,8.90
2018,01,16,16,14,8.90
2018,01,16,16,15,8.90
2018,01,16,16,16,8.80
2018,01,16,16,17,8.80
2018,01,16,16,18,8.80
2018,01,16,16,19,8.80
2018,01,16,16,20,8.80
2018,01,16,16,21,8.70
2018,01,16,16,22,8.70
2018,01,16,16,23,8.70
2018,01,16,16,24,8.70
2018,01,16,16,25,8.70
2018,01,16,16,26,8.60
2018,01,16,16,27,8.60
2018,01,16,16,28,8.60
2018,01,16,16,29,8.60
2018,01,16,16,30,8.60
2018,01,16,16,31,8.50
2018,01,16,16,32,8.50
2018,01,16,16,33,8.50
2018,01,16,16,34,8.40
2018,01,16,16,35,8.40
2018,01,16,16,36,8.40
2018,01,16,16,37,8.30
2018,01,16,16,38,8.30
2018,01,16,16,39,8.30
2018,01,16,16,40,8.30
2018,01,16,16,41,8.30
2018,01,16,16,42,8.20
2018,01,16,16,43,8.20
2018,01,16,16,44,8.20
2018,01,16,16,45,8.20
2018,01,16,16,46,8.10
2018,01,16,16,47,8.10
2018,01,16,16,48,8.10
2018,01,16,16,49,8.00
2018,01,16,16,50,8.00
2018,01,16,16,51,7.90
2018,01,16,16,52,7.90
2018,01,16,16,53,7.90
2018,01,16,16,54,7.90
2018,01,16,16,55,7.90
2018,01,16,16,56,7.80
2018,01,16,16,57,7.80
2018,01,16,16,58,7.80
2018,01,16,16,59,7.80
2018,01,16,17,00,7.70
2018,01,16,17,01,7.70
2018,01,16,17,02,7.70
2018,01,16,17,03,7.70
2018,01,16,17,04,7.60
2018,01,16,17,05,7.60
2018,01,16,17,06,7.60
2018,01,16,17,07,7.60
2018,01,16,17,08,7.60
2018,01,16,17,09,7.50
2018,01,16,17,10,7.50
2018,01,16,17,11,7.50
2018,01,16,17,12,7.40
2018,01,16,17,13,7.40
2018,01,16,17,14,7.40
2018,01,16,17,15,7.40
2018,01,16,17,16,7.30
2018,01,16,17,17,7.30
2018,01,16,17,18,7.30
2018,01,16,17,19,7.30
2018,01,16,17,20,7.30
2018,01,16,17,21,7.30
2018,01,16,17,22,7.20
2018,01,16,17,23,7.20
2018,01,16,17,24,7.20
2018,01,16,17,25,7.20
2018,01,16,17,26,7.20
2018,01,16,17,27,7.20
2018,01,16,17,28,7.20
2018,01,16,17,29,7.20
2018,01,16,17,30,7.20
2018,01,16,17,31,7.20
2018,01,16,17,32,7.20
2018,01,16,17,33,7.20
2018,01,16,17,34,7.10
2018,01,16,17,35,7.10
2018,01,16,17,36,7.10
2018,01,16,17,37,7.10
2018,01,16,17,38,7.10
2018,01,16,17,39,7.00
2018,01,16,17,40,7.00
2018,01,16,17,41,7.00
2018,01,16,17,42,7.00
2018,01,16,17,43,7.00
2018,01,16,17,44,7.00
2018,01,16,17,45,6.90
2018,01,16,17,46,6.90
2018,01,16,17,47,6.90
2018,01,16,17,48,6.80
2018,01,16,17,49,6.80
2018,01,16,17,50,6.80
2018,01,16,17,51,6.80
2018,01,16,17,52,6.70
2018,01,16,17,53,6.70
2018,01,16,17,54,6.70
2018,01,16,17,55,6.60
2018,01,16,17,56,6.60
2018,01,16,17,57,6.60
2018,01,16,17,58,6.60
2018,01,16,17,59,6.50
2018,01,16,18,00,6.50
2018,01,16,18,01,6.40
2018,01,16,18,02,6.40
2018,01,16,18,03,6.40
2018,01,16,18,04,6.40
2018,01,16,18,05,6.40
2018,01,16,18,06,6.40
2018,01,16,18,07,6.30
2018,01,16,18,08,6.30
2018,01,16,18,09,6.30
2018,01,16,18,10,6.30
2018,01,16,18,11,6.30
2018,01,16,18,12,6.20
2018,01,16,18,13,6.20
2018,01,16,18,14,6.20
2018,01,16,18,15,6.20
2018,01,16,18,16,6.20
2018,01,16,18,17,6.10
2018,01,16,18,18,6.10
2018,01,16,18,19,6.10
2018,01,16,18,20,6.00
2018,01,16,18,21,6.00
2018,01,16,18,22,5.90
2018,01,16,18,23,5.90
2018,01,16,18,24,5.90
2018,01,16,18,25,5.90
2018,01,16,18,26,5.80
2018,01,16,18,27,5.80
2018,01,16,18,28,5.80
2018,01,16,18,29,5.80
2018,01,16,18,30,5.80
2018,01,16,18,31,5.80
2018,01,16,18,32,5.80
2018,01,16,18,33,5.80
2018,01,16,18,34,5.80
2018,01,16,18,35,5.80
2018,01,16,18,36,5.80
2018,01,16,18,37,5.80
2018,01,16,18,38,5.80
2018,01,16,18,39,5.80
2018,01,16,18,40,5.80
2018,01,16,18,41,5.80
